Location: Coffee Ditch
(40.9640°N, 122.7500°W)
Time: 07:24:35
(UTC+00:00)

Cosmos 676 Rocket - Pass Details

Date: 08 September 2024
Orbit: 751 x 781 km, 74.0° (Epoch: 05 October)

Event Time Altitude Azimuth Distance (km) Brightness Sun altitude
Exits shadow 12:29:07 - 190° (S) 3,064 6.8 -14.7°
Reaches altitude 10° 12:31:10 10° 189° (S) 2,264 6.2 -14.4°
Maximum altitude 12:36:15 69° 106° (ESE) 805 4.3 -13.5°
Drops below altitude 10° 12:41:24 10° 24° (NNE) 2,288 7.1 -12.6°
Sets 12:43:47 0° 22° (NNE) 3,221 7.9 -12.1°
